Regional Weather Roundup
Issued by NWS Jackson, KY

Home | Current Version | Previous Version | Text Only | Print | Product List | Glossary Off
Versions: 1 2 3 4 5 6 7 8 9 10 11 12 13 14 15 16 17 18 19 20 21 22 23 24 25 26 27 28

000
ASUS43 KJKL 192310
RWRJKL

EAST KENTUCKY HOURLY WEATHER ROUNDUP
NATIONAL WEATHER SERVICE JACKSON KY
700 PM EDT SAT AUG 19 2017

NOTE: "FAIR" INDICATES FEW OR NO CLOUDS BELOW 12,000 FEET WITH
NO SIGNIFICANT WEATHER AND/OR OBSTRUCTIONS TO VISIBILITY.

* THESE REPORTS ARE NOT UNDER NWS QUALITY CONTROL AND MAY NOT
  REPORT WEATHER SUCH AS PRECIPITATION AND FOG.

KYZ079-080-083-085-087-088-110-112-115-119-120-200000
...EASTERN KENTUCKY...

CITY           SKY/WX    TMP DP  RH WIND       PRES   REMARKS
JACKSON        SUNNY     83  68  60 CALM      30.00R
LONDON         SUNNY     84  66  54 W7        29.99S
SOMERSET*      SUNNY     82  61  47 W5        29.99S
MONTICELLO*    SUNNY     84  69  60 W14       30.00S
WILLIAMSBURG*  CLEAR     84  68  58 CALM      29.99S
MIDDLESBORO*   SUNNY     85  68  57 CALM      29.99S
HARLAN APT*    CLEAR     82  64  54 CALM      30.01S
PIKE CO APT*     N/A     81  67  62 W5        30.00S
BIG SANDY APT* CLEAR     83  69  62 W3        29.99S
MOREHEAD APT*  PTCLDY    82  64  54 SW6       29.99R
$$

KYZ035-036-041-042-044-050-067-078-099-200000
...CENTRAL KENTUCKY...

CITY           SKY/WX    TMP DP  RH WIND       PRES   REMARKS
MT STERLING*   MOSUNNY   82  68  61 CALM      29.99R
FLEMING/MASON* MOSUNNY   83  67  57 SW5       29.97S
DANVILLE*      MOSUNNY   82  68  61 W3        29.99S
LEXINGTON      SUNNY     82  65  56 SW6       29.97R
FRANKFORT      CLOUDY    82  67  60 N5        29.95S
LOUISVILLE     MOSUNNY   88  64  44 SW9       29.93S
LEBANON*         N/A     84  66  54 S5        29.97S
GLASGOW*       CLOUDY    85  67  55 SW3       29.96F
BOWLING GREEN  MOSUNNY   88  68  51 VRB5      29.95S HX  91
$$

KYZ091>093-OHZ055-061-077-WVZ005-015-034-035-042-200000
...SOUTHERN OHIO/WEST VIRGINIA...

CITY           SKY/WX    TMP DP  RH WIND       PRES   REMARKS
COVINGTON      MOSUNNY   82  68  62 SW6       29.95R
COLUMBUS       MOSUNNY   81  69  67 N10       29.93R
DAYTON         MOSUNNY   82  65  56 NW8       29.97R
WILMINGTON     SUNNY     79  69  71 S6        29.94R
HUNTINGTON     SUNNY     82  66  58 SW6       29.95R
CHARLESTON     MOSUNNY   82  65  56 W3        29.96R
PINEVILLE*     SUNNY     75  69  82 MISG      30.06S
BECKLEY        SUNNY     78  61  55 W8        30.05R
BLUEFIELD      SUNNY     76  61  59 W6        30.08R
LOGAN CO APT*    N/A     81  66  61 CALM      30.01R
$$

VAZ002-007-008-TNZ017-027-036-066-071-200000
...SOUTHWEST VIRGINIA/EAST TENNESSEE...

CITY           SKY/WX    TMP DP  RH WIND       PRES   REMARKS
WISE*          SUNNY     79  61  53 CALM      30.09R
JONESVILLE*      N/A     84  66  54 CALM      30.02S
ABINGDON*      SUNNY     82  65  56 W3        30.05R
BRISTOL        SUNNY     84  64  50 W3        30.01S
MORRISTOWN*    CLEAR     84  64  51 VRB5      29.99S
SEVIERVILLE*   CLEAR     86  61  42 NW5       29.97S
KNOXVILLE      SUNNY     86  58  38 W3        29.97S
LAFOLLETTE*    CLEAR     86  70  58 SW5       30.01S HX  90
OAK RIDGE      SUNNY     87  64  46 SW5       29.98F
CROSSVILLE     SUNNY     81  62  52 W6        30.04S
NASHVILLE      MOSUNNY   90  64  42 W8        29.95F HX  91
$$

...KEY TO REMARKS...
VSB - VISIBILITY IN MILES
WCI - WIND CHILL INDEX
HX  - HEAT INDEX

$$




USA.gov is the U.S. government's official web portal to all federal, state and local government web resources and services.